| time (UTC) | temp C | wind direction | speed KPH | gust KPH | rain 1hr cm | rain 24hr cm | rain mn cm | humidity % | barometer mb |
| 20260508164553 | 18 | 36 | 3.2 | 9.7 | 0.00 | 0.03 | 0.00 | 39 | 1017.4 |
| 20260508163022 | 19 | 67 | 4.8 | 14.5 | 0.00 | 0.03 | 0.00 | 40 | 1017.4 |
| 20260508161529 | 19 | 240 | 0.0 | 9.7 | 0.00 | 0.03 | 0.00 | 48 | 1017.6 |
| 20260508160110 | 18 | 14 | 4.8 | 8.0 | 0.00 | 0.03 | 0.00 | 50 | 1017.9 |
| 20260508154536 | 18 | 51 | 3.2 | 11.3 | 0.00 | 0.03 | 0.00 | 51 | 1018.0 |
| 20260508153045 | 18 | 178 | 3.2 | 11.3 | 0.00 | 0.03 | 0.00 | 49 | 1018.1 |
| 20260508151520 | 17 | 152 | 3.2 | 6.4 | 0.00 | 0.05 | 0.00 | 50 | 1018.0 |
| 20260508150109 | 17 | 157 | 1.6 | 6.4 | 0.00 | 0.05 | 0.00 | 48 | 1018.1 |
| 20260508144530 | 17 | 5 | 0.0 | 6.4 | 0.00 | 0.05 | 0.00 | 50 | 1018.4 |
| 20260508143106 | 17 | 9 | 1.6 | 8.0 | 0.00 | 0.05 | 0.00 | 53 | 1018.4 |
| 20260508141559 | 16 | 20 | 0.0 | 6.4 | 0.00 | 0.13 | 0.00 | 56 | 1018.4 |
| 20260508140027 | 16 | 186 | 3.2 | 6.4 | 0.00 | 0.13 | 0.00 | 56 | 1018.3 |
| 20260508134506 | 16 | 144 | 0.0 | 6.4 | 0.00 | 0.13 | 0.00 | 61 | 1018.2 |
| 20260508133041 | 15 | 146 | 0.0 | 6.4 | 0.00 | 0.13 | 0.00 | 64 | 1018.2 |
| 20260508131519 | 14 | 44 | 0.0 | 4.8 | 0.00 | 0.15 | 0.00 | 71 | 1018.1 |
| 20260508130053 | 13 | 35 | 1.6 | 6.4 | 0.00 | 0.15 | 0.00 | 77 | 1018.0 |
| 20260508124527 | 12 | 355 | 0.0 | 3.2 | 0.00 | 0.15 | 0.00 | 85 | 1017.9 |
| 20260508123016 | 11 | 39 | 0.0 | 3.2 | 0.00 | 0.15 | 0.00 | 91 | 1017.8 |
| 20260508121533 | 10 | 37 | 1.6 | 4.8 | 0.00 | 0.30 | 0.00 | 91 | 1017.6 |
| 20260508120017 | 8 | 5 | 0.0 | 1.6 | 0.00 | 0.30 | 0.00 | 91 | 1017.5 |
| 20260508114608 | 8 | 188 | 0.0 | 0.0 | 0.00 | 0.30 | 0.00 | 91 | 1017.2 |
| 20260508113038 | 7 | 237 | 0.0 | 0.0 | 0.00 | 0.30 | 0.00 | 91 | 1016.9 |
| 20260508111513 | 6 | 71 | 0.0 | 0.0 | 0.00 | 0.38 | 0.00 | 90 | 1016.7 |
| 20260508110109 | 6 | 71 | 0.0 | 0.0 | 0.00 | 0.38 | 0.00 | 89 | 1016.4 |
| 20260508104539 | 7 | 71 | 0.0 | 0.0 | 0.00 | 0.38 | 0.00 | 89 | 1016.3 |
| 20260508103016 | 7 | 71 | 0.0 | 0.0 | 0.00 | 0.38 | 0.00 | 89 | 1015.9 |
| 20260508101553 | 7 | 71 | 0.0 | 0.0 | 0.00 | 0.38 | 0.00 | 89 | 1015.7 |
| 20260508100017 | 7 | 71 | 0.0 | 0.0 | 0.00 | 0.38 | 0.00 | 89 | 1015.6 |
| 20260508094515 | 7 | 71 | 0.0 | 0.0 | 0.00 | 0.38 | 0.00 | 89 | 1015.5 |
| 20260508093012 | 7 | 71 | 0.0 | 0.0 | 0.00 | 0.38 | 0.00 | 89 | 1015.5 |
| 20260508091543 | 7 | 71 | 0.0 | 0.0 | 0.00 | 0.38 | 0.00 | 89 | 1015.4 |
| 20260508090025 | 7 | 71 | 0.0 | 0.0 | 0.00 | 0.38 | 0.00 | 89 | 1015.3 |
| 20260508084557 | 7 | 71 | 0.0 | 0.0 | 0.00 | 0.38 | 0.00 | 89 | 1015.3 |
| 20260508083027 | 8 | 71 | 0.0 | 0.0 | 0.00 | 0.38 | 0.00 | 88 | 1015.1 |
| 20260508081509 | 8 | 71 | 0.0 | 0.0 | 0.00 | 0.38 | 0.00 | 89 | 1014.9 |
| 20260508080110 | 8 | 71 | 0.0 | 0.0 | 0.00 | 0.38 | 0.00 | 89 | 1014.8 |
| 20260508074529 | 8 | 71 | 0.0 | 0.0 | 0.00 | 0.38 | 0.00 | 89 | 1014.8 |
| 20260508073016 | 8 | 71 | 0.0 | 0.0 | 0.00 | 0.38 | 0.00 | 88 | 1014.8 |
| 20260508071543 | 8 | 71 | 0.0 | 0.0 | 0.00 | 0.56 | 0.00 | 88 | 1014.7 |
| 20260508070024 | 8 | 71 | 0.0 | 0.0 | 0.00 | 0.56 | 0.00 | 88 | 1014.5 |
| 20260508064505 | 9 | 71 | 0.0 | 0.0 | 0.00 | 0.56 | 0.00 | 87 | 1014.4 |
| 20260508063107 | 9 | 71 | 0.0 | 0.0 | 0.00 | 0.56 | 0.00 | 88 | 1014.3 |
| 20260508061504 | 9 | 71 | 0.0 | 0.0 | 0.00 | 0.81 | 0.00 | 87 | 1014.5 |
| 20260508060107 | 10 | 71 | 0.0 | 0.0 | 0.00 | 0.81 | 0.00 | 87 | 1014.6 |
| 20260508054530 | 10 | 71 | 0.0 | 0.0 | 0.00 | 0.81 | 0.00 | 86 | 1014.5 |
| 20260508053038 | 10 | 71 | 0.0 | 0.0 | 0.00 | 0.81 | 0.00 | 86 | 1014.4 |
| 20260508051518 | 10 | 71 | 0.0 | 0.0 | 0.00 | 1.02 | 0.00 | 85 | 1014.4 |
| 20260508050036 | 10 | 71 | 0.0 | 0.0 | 0.00 | 1.02 | 0.00 | 83 | 1014.3 |
| 20260508044553 | 11 | 71 | 0.0 | 0.0 | 0.00 | 1.02 | 0.00 | 82 | 1014.2 |
| 20260508043038 | 11 | 71 | 0.0 | 0.0 | 0.00 | 1.02 | 0.00 | 81 | 1013.9 |
| 20260508041511 | 12 | 71 | 0.0 | 0.0 | 0.00 | 1.02 | 1.02 | 80 | 1014.0 |
| 20260508040042 | 12 | 71 | 0.0 | 0.0 | 0.00 | 1.02 | 1.02 | 81 | 1014.1 |
| 20260508034534 | 12 | 71 | 0.0 | 1.6 | 0.00 | 1.02 | 1.02 | 80 | 1014.0 |
| 20260508033013 | 12 | 71 | 0.0 | 0.0 | 0.00 | 1.02 | 1.02 | 78 | 1013.9 |
| 20260508031603 | 13 | 71 | 0.0 | 1.6 | 0.00 | 1.19 | 1.02 | 77 | 1013.9 |
| 20260508030038 | 13 | 71 | 0.0 | 0.0 | 0.00 | 1.19 | 1.02 | 76 | 1013.8 |
| 20260508024514 | 13 | 71 | 0.0 | 0.0 | 0.00 | 1.19 | 1.02 | 75 | 1013.7 |
| 20260508023038 | 13 | 71 | 0.0 | 1.6 | 0.00 | 1.19 | 1.02 | 74 | 1013.5 |
| 20260508021521 | 13 | 30 | 0.0 | 4.8 | 0.00 | 1.45 | 1.02 | 78 | 1013.3 |
| 20260508020022 | 13 | 313 | 0.0 | 3.2 | 0.00 | 1.45 | 1.02 | 83 | 1013.0 |
| 20260508014542 | 14 | 342 | 0.0 | 1.6 | 0.00 | 1.45 | 1.02 | 87 | 1012.8 |
| 20260508013017 | 15 | 342 | 0.0 | 1.6 | 0.00 | 1.45 | 1.02 | 86 | 1012.5 |
| 20260508011510 | 15 | 342 | 0.0 | 3.2 | 0.00 | 1.88 | 1.02 | 86 | 1012.4 |
| 20260508010010 | 15 | 240 | 0.0 | 1.6 | 0.00 | 1.88 | 1.02 | 86 | 1012.1 |
| 20260508004535 | 15 | 273 | 0.0 | 0.0 | 0.00 | 1.88 | 1.02 | 84 | 1011.8 |
| 20260508003102 | 15 | 205 | 0.0 | 1.6 | 0.00 | 1.88 | 1.02 | 84 | 1011.2 |
| 20260508001629 | 16 | 205 | 0.0 | 3.2 | 0.00 | 2.24 | 1.02 | 83 | 1010.8 |
| 20260508000029 | 16 | 37 | 0.0 | 4.8 | 0.00 | 2.24 | 1.02 | 82 | 1010.8 |
| 20260507234515 | 16 | 342 | 0.0 | 6.4 | 0.00 | 2.24 | 1.02 | 81 | 1010.6 |
| 20260507233057 | 17 | 67 | 1.6 | 11.3 | 0.00 | 2.24 | 1.02 | 80 | 1010.5 |
| 20260507231548 | 17 | 59 | 1.6 | 8.0 | 0.00 | 2.26 | 1.02 | 80 | 1010.1 |
| 20260507230027 | 18 | 81 | 1.6 | 8.0 | 0.00 | 2.26 | 1.02 | 78 | 1009.8 |
| 20260507224614 | 18 | 80 | 3.2 | 16.1 | 0.00 | 2.26 | 1.02 | 78 | 1009.6 |
| 20260507223026 | 17 | 65 | 1.6 | 14.5 | 0.00 | 2.26 | 1.02 | 82 | 1009.2 |
| 20260507221511 | 17 | 30 | 3.2 | 12.9 | 0.00 | 2.26 | 1.02 | 82 | 1009.1 |
| 20260507220044 | 18 | 74 | 1.6 | 9.7 | 0.00 | 2.26 | 1.02 | 80 | 1008.6 |
| 20260507214516 | 20 | 72 | 1.6 | 11.3 | 0.00 | 2.26 | 1.02 | 75 | 1008.2 |
| 20260507213018 | 22 | 14 | 0.0 | 9.7 | 0.00 | 2.26 | 1.02 | 66 | 1007.3 |
| 20260507211514 | 23 | 41 | 3.2 | 14.5 | 0.00 | 2.26 | 1.02 | 65 | 1007.1 |
| 20260507210016 | 24 | 355 | 0.0 | 11.3 | 0.00 | 2.26 | 1.02 | 63 | 1006.7 |
| 20260507204600 | 25 | 231 | 1.6 | 12.9 | 0.00 | 2.26 | 1.02 | 64 | 1007.0 |
| 20260507203029 | 25 | 239 | 1.6 | 4.8 | 0.00 | 2.26 | 1.02 | 63 | 1007.1 |
| 20260507201533 | 25 | 275 | 4.8 | 12.9 | 0.00 | 2.26 | 1.02 | 62 | 1007.2 |
| 20260507200019 | 25 | 10 | 4.8 | 12.9 | 0.00 | 2.26 | 1.02 | 59 | 1007.3 |
| 20260507194547 | 25 | 65 | 1.6 | 12.9 | 0.00 | 2.26 | 1.02 | 65 | 1007.7 |
| 20260507193031 | 25 | 53 | 1.6 | 11.3 | 0.00 | 2.26 | 1.02 | 64 | 1007.7 |
| 20260507191609 | 24 | 48 | 4.8 | 14.5 | 0.00 | 2.26 | 1.02 | 66 | 1008.1 |
| 20260507184526 | 23 | 80 | 1.6 | 12.9 | 0.03 | 2.26 | 1.02 | 67 | 1008.4 |
| 20260507183004 | 23 | 317 | 3.2 | 11.3 | 0.03 | 2.26 | 1.02 | 71 | 1008.5 |
| 20260507181533 | 23 | 329 | 4.8 | 11.3 | 0.03 | 2.31 | 1.02 | 70 | 1008.4 |
| 20260507180037 | 22 | 196 | 4.8 | 8.0 | 0.03 | 2.31 | 1.02 | 76 | 1008.4 |
| 20260507174610 | 22 | 149 | 0.0 | 9.7 | 0.00 | 2.29 | 0.99 | 78 | 1008.7 |
| 20260507173048 | 21 | 338 | 3.2 | 12.9 | 0.00 | 2.29 | 0.99 | 80 | 1009.1 |
| 20260507171523 | 21 | 118 | 3.2 | 14.5 | 0.00 | 2.90 | 0.99 | 83 | 1009.1 |
| 20260507170038 | 20 | 311 | 1.6 | 6.4 | 0.00 | 2.90 | 0.99 | 88 | 1009.1 |